Regional Weather Roundup
Issued by NWS

Home | Current Version | Previous Version | Graphics & Text | Print | Product List | Glossary On
Versions: 1 2 3 4 5 6 7 8 9 10 11 12 13 14 15 16 17 18 19 20 21 22 23 24 25 26 27 28 29 30 31 32 33 34 35 36 37 38 39 40 41 42 43 44 45 46 47 48 49 50
000
ASUS43 KLOT 151958
RWRIL

ILLINOIS REGIONAL WEATHER ROUNDUP
NATIONAL WEATHER SERVICE CHICAGO/ROMEOVILLE IL
300 PM CDT MON SEP 15 2014

NOTE: "FAIR" INDICATES FEW OR NO CLOUDS BELOW 12,000 FEET WITH NO
SIGNIFICANT WEATHER AND/OR OBSTRUCTIONS TO VISIBILITY.

* THESE STATIONS ARE NOT UNDER NWS QUALITY CONTROL. THEY ALSO MAY NOT
  REPORT WEATHER SUCH AS PRECIPITATION OR FOG.

ILZ001-002-007-009-015-016-024-152100-
NORTHWEST ILLINOIS

CITY           SKY/WX    TMP DP  RH WIND       PRES   REMARKS
MOLINE         PTSUNNY   68  55  63 NE6       30.06F
$$

ILZ003-004-008-010-011-017-018-152100-
NORTH CENTRAL ILLINOIS

CITY           SKY/WX    TMP DP  RH WIND       PRES   REMARKS
ROCKFORD       LGT RAIN  59  51  75 NW3       30.13R
$$

ILZ005-006-012>014-019>023-152100-
NORTHEAST ILLINOIS

CITY           SKY/WX    TMP DP  RH WIND       PRES   REMARKS
CHICAGO-OHARE  CLOUDY    61  50  67 SW7       30.08S
CHICAGO-MIDWAY CLOUDY    59  52  77 W7        30.09R
AURORA         CLOUDY    57  52  83 CALM      30.09F HAZE
WAUKEGAN       CLOUDY    60  49  66 CALM      30.08F
DUPAGE AIRPORT CLOUDY    58  51  78 S5        30.08F
WHEELING       CLOUDY    61  50  67 VRB3      30.10S
NORTHERLY ISL    N/A     59  49  69 W7          N/A
$$

LMZ740>746-152100-
SOUTHERN LAKE MICHIGAN

STATION/POSITION SKY/WX   TEMP    WIND        PRES    VSBY  WAVE
                          AIR SEA DIR/SP/G                  HT/PER
                          (F)     (DEG/KT/KT) (MB)    (MI)  (FT/S)
SOUTHERN BUOY              61 65   CALM  /  2 1019.0F         1/ 3
WAUKEGAN HARBOR            62     160/  3/  3   N/A
HARRISON CRIB              60     200/ 13/ 14   N/A
BURNHAM HARBOR             59     260/  7/ 12   N/A
CALUMET HARBOR             58     200/  6/  9 1017.7F
MICHIGAN CITY              58     180/ 12/ 15   N/A
MICHIGAN CITY 6N           59 64  210/ 12/ 16   N/A           1/ 2
ST. JOSEPH                 61 66  200/ 12/ 16   N/A           2/ 4
$$

ILZ025>027-034>036-040-047-049-050-058-095>099-152100-
WEST-CENTRAL ILLINOIS

CITY           SKY/WX    TMP DP  RH WIND       PRES   REMARKS
$$

ILZ028>032-037-038-041>044-048-051>054-059>061-152100-
CENTRAL ILLINOIS

CITY           SKY/WX    TMP DP  RH WIND       PRES   REMARKS
PEORIA         CLOUDY    59  55  88 W6        30.08R FOG
SPRINGFIELD    RAIN      59  58  96 SW3       30.07R VSB 1
TAYLORVILLE    NOT AVBL
$$

ILZ033-039-045-046-055>057-062-063-152100-
EAST-CENTRAL ILLINOIS

CITY           SKY/WX    TMP DP  RH WIND       PRES   REMARKS
MATTOON        LGT RAIN  57  55  93 S10       30.05S
$$

ILZ079-100>102-152100-
SOUTHWEST ILLINOIS

CITY           SKY/WX    TMP DP  RH WIND       PRES   REMARKS
CAHOKIA*       CLOUDY    78  64  61 W8        30.03F HX  80
$$

ILZ064>066-069>071-074>076-080>082-084>086-088>090-092>094-152100-
SOUTH-CENTRAL ILLINOIS

CITY           SKY/WX    TMP DP  RH WIND       PRES   REMARKS
CARBONDALE     PTSUNNY   74  61  63 S8        30.06F
MARION         PTSUNNY   75  63  64 S12       30.08F
$$

ILZ067-068-072-073-078-083-087-091-152100-
SOUTHEAST ILLINOIS

CITY           SKY/WX    TMP DP  RH WIND       PRES   REMARKS
$$

ABBREVIATIONS USED IN REMARKS
   TC - TEMPERATURE IN CELSIUS
  WCI - WIND CHILL INDEX
   HX - HEAT INDEX
  VSB - VISIBILITY
$$




USA.gov is the U.S. government's official web portal to all federal, state and local government web resources and services.